DateTimeUTC,F1_A11,F1_S11,BsB_S11,BsG_S11,BsR_S11,BbsB_S11,BbsG_S11,BbsR_S11,BaB_A11,BaG_A11,BaR_A11,Tu_S11,T_S11,Uu_S11,U_S11,P_S11,T1_A11
2021-09-02T23:00:00Z,00000200,20000000,,,,,,,-000.02,0000.05,-000.03,19.0,25.7,08.3,05.5,0673.9,31.1
2021-09-02T23:01:00Z,00000200,20000000,,,,,,,0000.10,0000.22,-000.07,19.0,25.7,08.3,05.5,0673.9,31.1
2021-09-02T23:02:00Z,00000200,20000000,,,,,,,0000.08,-000.37,-000.34,19.0,25.7,08.3,05.5,0673.9,31.1
2021-09-02T23:03:00Z,00000200,60000000,,,,,,,0000.06,0000.36,0000.51,19.0,25.7,08.3,05.5,0673.9,31.1
2021-09-02T23:04:00Z,00000200,40000000,0001.39,0000.49,0000.59,0000.72,0000.30,-000.07,0000.31,0000.18,-000.01,19.2,25.6,08.5,05.8,0674.7,31.1
2021-09-02T23:05:00Z,00000200,00000000,0000.62,0000.75,0000.04,0000.07,0000.29,-000.04,0000.47,0000.34,0000.29,19.2,25.5,08.5,05.8,0674.8,31.1
2021-09-02T23:06:00Z,00000200,00000000,0001.26,0000.71,0000.37,-000.06,-000.00,0000.18,-000.04,0000.18,0000.44,19.3,25.5,08.6,05.9,0674.8,31.1
2021-09-02T23:07:00Z,00000200,00000000,0000.94,0000.79,0000.19,0000.57,0000.10,-000.04,0000.30,-000.10,-000.16,19.3,25.5,08.5,05.9,0674.8,31.1
2021-09-02T23:08:00Z,00000200,00000000,0001.06,0000.86,0000.30,-000.18,0000.19,-000.09,0000.36,0000.33,0000.24,19.3,25.5,08.6,05.9,0674.8,31.1
2021-09-02T23:09:00Z,00000200,00000000,0000.64,0000.88,0000.41,0000.29,0000.07,0000.11,0000.05,0000.04,0000.37,19.3,25.5,08.6,05.9,0674.7,31.1
2021-09-02T23:10:00Z,00000200,00000000,0000.91,0000.95,0000.14,-000.24,0000.25,-000.15,0000.20,0000.30,0000.03,19.3,25.5,08.6,05.9,0674.7,31.1
2021-09-02T23:11:00Z,00000200,00000000,0000.53,0000.68,0000.64,0000.14,0000.42,-000.06,0000.41,0000.25,0000.29,19.3,25.5,08.6,05.9,0674.8,31.0
2021-09-02T23:12:00Z,00000200,00000000,0000.63,0000.60,0000.16,-000.22,0000.04,-000.08,-000.01,0000.52,-000.20,19.3,25.5,08.7,05.9,0674.8,31.1
2021-09-02T23:13:00Z,00000200,00000000,0001.00,0000.82,0000.32,0000.20,-000.03,0000.07,0000.20,0000.46,0000.45,19.3,25.5,08.6,05.9,0674.7,31.1
2021-09-02T23:14:00Z,00000200,00000000,0001.61,0000.49,0000.46,0000.00,0000.32,0000.10,0000.34,-000.35,0000.01,19.3,25.5,08.7,05.9,0674.7,31.1
2021-09-02T23:15:00Z,00000200,00000000,0001.03,0000.74,0000.40,0000.57,0000.24,0000.31,0000.13,0000.42,0000.30,19.3,25.5,08.6,05.9,0674.7,31.1
2021-09-02T23:16:00Z,00000200,00000000,0001.80,0000.80,0000.36,-000.22,0000.37,0000.43,0000.13,-000.02,-000.17,19.3,25.5,08.8,06.0,0674.8,31.1
2021-09-02T23:17:00Z,00000200,00000000,0001.77,0000.56,0000.31,-000.21,0000.03,-000.15,0000.23,0000.09,0000.18,19.3,25.5,08.7,06.0,0674.7,31.1
2021-09-02T23:18:00Z,00000200,00000000,0001.02,0000.77,0000.35,-000.02,0000.12,0000.21,0000.43,0000.37,0000.42,19.3,25.5,08.7,06.0,0674.8,31.1
2021-09-02T23:19:00Z,00000200,00000000,0000.60,0000.49,0000.12,-000.08,0000.35,-000.17,0000.10,0000.27,0000.06,19.3,25.5,08.6,05.9,0674.7,31.1
2021-09-02T23:20:00Z,00000200,00000000,0001.98,0000.52,0000.34,0000.28,0000.16,-000.15,0000.07,-000.10,0000.32,19.3,25.5,08.7,06.0,0674.8,31.1
2021-09-02T23:21:00Z,00000200,00000000,0000.95,0000.59,0000.32,0000.39,0000.20,0000.07,0000.03,0000.23,-000.24,19.3,25.5,08.7,05.9,0674.8,31.1
2021-09-02T23:22:00Z,00000200,00000000,0000.41,0000.77,0000.44,0000.05,0000.16,-000.11,0000.37,-000.10,0000.33,19.3,25.5,08.6,05.9,0674.8,31.1
2021-09-02T23:23:00Z,00000200,00000000,0000.96,0000.53,0000.30,0000.22,-000.11,0000.06,0000.07,0000.51,-000.04,19.3,25.5,08.5,05.9,0674.8,31.1
2021-09-02T23:24:00Z,00000200,00000000,0000.75,0000.42,0000.31,-000.46,-000.11,-000.00,0000.22,-000.13,-000.04,19.3,25.5,08.7,06.0,0674.8,31.1
2021-09-02T23:25:00Z,00000200,00000000,0001.56,0000.36,0000.13,-000.15,0000.30,-000.42,-000.15,0000.44,0000.50,19.4,25.5,08.6,06.0,0674.8,31.1
2021-09-02T23:26:00Z,00000200,00000000,0001.12,0000.46,0000.32,0000.17,0000.02,0000.13,0000.74,-000.11,0000.16,19.4,25.5,08.7,06.0,0674.8,31.1
2021-09-02T23:27:00Z,00000200,00000000,0001.20,0000.69,0000.67,0000.22,0000.02,0000.19,-000.15,0000.21,-000.04,19.4,25.5,08.8,06.0,0674.8,31.1
2021-09-02T23:28:00Z,00000200,00000000,0000.93,0000.51,0000.28,0000.63,0000.00,-000.28,0000.30,-000.06,0000.05,19.4,25.5,08.7,06.0,0674.8,31.1
2021-09-02T23:29:00Z,00000200,00000000,0001.81,0000.79,0000.33,-000.19,0000.23,0000.17,0000.15,0000.25,0000.09,19.4,25.5,08.7,06.0,0674.8,31.1
2021-09-02T23:30:00Z,00000200,00000000,0000.97,0000.36,0000.36,-000.58,0000.15,0000.01,-000.18,0000.09,0000.44,19.4,25.5,08.7,06.0,0674.8,31.1
2021-09-02T23:31:00Z,00000200,00000000,0001.09,0000.56,-000.09,-000.04,0000.17,-000.16,0000.25,0000.41,-000.16,19.4,25.5,08.8,06.1,0674.8,31.1
2021-09-02T23:32:00Z,00000200,00000000,0000.93,0000.73,-000.09,-000.09,0000.14,0000.01,0000.25,-000.18,0000.20,19.4,25.5,08.8,06.1,0674.8,31.1
2021-09-02T23:33:00Z,00000200,00000000,0000.65,0000.72,0000.36,0000.28,0000.24,0000.25,0000.38,0000.43,-000.17,19.4,25.5,08.9,06.1,0674.8,31.1
2021-09-02T23:34:00Z,00000200,00000000,0000.66,0000.61,0000.22,0000.06,0000.07,0000.12,0000.36,0000.24,0000.13,19.4,25.5,08.8,06.1,0674.8,31.1
2021-09-02T23:35:00Z,00000200,00000000,0000.81,0000.87,0000.36,-000.38,0000.27,0000.21,-000.07,0000.04,0000.25,19.4,25.5,09.0,06.2,0674.8,31.1
2021-09-02T23:36:00Z,00000200,00000000,-000.08,0000.59,0000.55,0000.36,0000.43,0000.41,-000.09,-000.06,0000.13,19.4,25.5,09.0,06.2,0674.8,31.1
2021-09-02T23:37:00Z,00000200,00000000,0001.21,0000.45,0000.19,0000.08,0000.05,0000.14,0000.09,0000.47,0000.22,19.4,25.5,09.0,06.2,0674.8,31.1
2021-09-02T23:38:00Z,00000200,00000000,0001.30,0000.31,0000.20,0000.28,0000.19,-000.02,0000.23,-000.13,-000.06,19.4,25.5,09.0,06.2,0674.8,31.1
2021-09-02T23:39:00Z,00000200,00000000,0000.61,0000.30,0000.17,-000.05,0000.38,-000.09,-000.19,0000.19,0000.09,19.4,25.5,09.0,06.2,0674.7,31.1
2021-09-02T23:40:00Z,00000200,00000000,0000.24,0000.53,0000.08,0000.13,0000.38,-000.16,0000.56,0000.08,-000.32,19.4,25.5,09.0,06.2,0674.8,31.1
2021-09-02T23:41:00Z,00000200,00000000,0000.82,0000.30,0000.52,0000.45,-000.02,0000.13,0000.10,0000.20,0000.42,19.4,25.6,09.1,06.3,0674.7,31.1
2021-09-02T23:42:00Z,00000200,00000000,0000.93,0000.37,-000.08,0000.14,0000.45,-000.05,0000.02,0000.24,-000.02,19.4,25.6,09.1,06.3,0674.7,31.1
2021-09-02T23:43:00Z,00000200,00000000,0000.31,0000.40,0000.05,0000.29,0000.24,-000.03,0000.27,-000.17,0000.28,19.4,25.6,09.1,06.3,0674.7,31.1
2021-09-02T23:44:00Z,00000200,00000000,0000.65,0000.53,0000.24,0000.25,0000.49,-000.20,0000.09,0000.23,0000.16,19.4,25.6,09.1,06.3,0674.7,31.1
2021-09-02T23:45:00Z,00000200,00000000,0000.42,0000.52,-000.10,-000.12,-000.14,-000.14,0000.37,-000.01,-000.10,19.4,25.6,09.1,06.3,0674.7,31.1
2021-09-02T23:46:00Z,00000200,00000000,0000.06,0000.53,0000.09,-000.57,0000.24,0000.19,-000.27,0000.13,0000.13,19.4,25.6,09.1,06.3,0674.7,31.1
2021-09-02T23:47:00Z,00000200,00000000,0000.02,0000.53,-000.13,0000.13,-000.00,0000.00,-000.04,-000.20,0000.19,19.5,25.6,09.2,06.4,0674.7,31.1
2021-09-02T23:48:00Z,00000200,00000000,0000.78,0000.33,-000.26,-000.20,-000.00,-000.21,-000.16,0000.18,0000.01,19.5,25.6,09.1,06.3,0674.6,31.1
2021-09-02T23:49:00Z,00000200,00000000,0000.33,0000.52,0000.12,0000.15,-000.04,-000.10,0000.42,0000.10,-000.05,19.5,25.6,09.1,06.3,0674.7,31.1
2021-09-02T23:50:00Z,00000200,00000000,0000.80,0000.15,0000.45,0000.15,0000.29,-000.25,0000.19,0000.24,-000.10,19.5,25.6,09.1,06.3,0674.7,31.1
2021-09-02T23:51:00Z,00000200,00000000,0001.06,0000.37,0000.18,0000.15,0000.05,0000.24,0000.04,0000.42,0000.37,19.5,25.6,09.1,06.3,0674.6,31.1
2021-09-02T23:52:00Z,00000200,00000000,0000.32,0000.42,0000.20,-000.42,0000.33,0000.00,0000.18,-000.04,0000.26,19.5,25.5,09.1,06.3,0674.6,31.1
2021-09-02T23:53:00Z,00000200,00000000,0001.21,0000.63,0000.13,0000.21,0000.13,0000.14,-000.03,0000.15,-000.24,19.5,25.6,09.3,06.4,0674.6,31.1
2021-09-02T23:54:00Z,00000200,00000000,0000.13,0000.35,-000.02,0000.52,0000.14,-000.13,0000.20,-000.40,0000.10,19.5,25.6,09.3,06.4,0674.6,31.1
2021-09-02T23:55:00Z,00000200,00000000,0001.47,-000.03,0000.03,0000.28,0000.06,0000.17,0000.08,0000.38,-000.25,19.5,25.6,09.3,06.4,0674.6,31.1
2021-09-02T23:56:00Z,00000200,00000000,-000.11,0000.29,0000.11,-000.11,0000.05,-000.32,0000.02,-000.11,0000.27,19.5,25.6,09.1,06.3,0674.6,31.1
2021-09-02T23:57:00Z,00000200,40000000,,,,,,,-000.28,-000.01,-000.01,19.5,25.6,09.1,06.3,0674.4,31.1
2021-09-02T23:58:00Z,00000200,60000000,,,,,,,0000.02,-000.19,0000.16,19.3,25.7,09.0,06.1,0673.6,31.1
2021-09-02T23:59:00Z,00000200,20000000,,,,,,,0000.33,0000.21,-000.15,19.3,25.8,09.1,06.1,0673.6,31.1
